Bookmark and Share
Track history (hours):
 

Stolt Dipper

Last reported at 2014-Apr-20 06:31 UTC. Time now 2014-Apr-20 08:51 UTC.
Position N 51°53' E 004°19'.

Length 96 m; draft 6.4 m.

Type: Ship (hazmat cat B). MMSI: 319036000.

NotesDate/timePositionNaut miles runAvg speedWind from/ knotsBaromVisibWave heightAir tempDewpointWater temp
2014-Apr-20 06:31N 51°53' E 004°19'0 0.0
2014-Apr-20 05:19N 51°53' E 004°19'0 0.0
2014-Apr-20 04:16N 51°53' E 004°19'0 0.0
2014-Apr-20 03:25N 51°53' E 004°19'0 0.0
2014-Apr-20 02:25N 51°53' E 004°19'0 0.0
2014-Apr-20 00:28N 51°53' E 004°19'3 3.3
2014-Apr-19 23:33N 51°55' E 004°14'10 9.7
2014-Apr-19 22:33N 51°60' E 004°01'10 9.7
2014-Apr-19 21:33N 51°59' E 003°45'10 9.7
2014-Apr-19 20:33N 51°55' E 003°30'3 3.2
2014-Apr-19 19:33N 51°53' E 003°27'0 0.1
2014-Apr-19 18:33N 51°53' E 003°27'0 0.0
2014-Apr-19 17:06N 51°53' E 003°27'0 0.0
2014-Apr-19 16:30N 51°53' E 003°27'0 0.0
2014-Apr-19 15:24N 51°53' E 003°27'43 1.8
2014-Apr-18 15:33N 51°35' E 002°24'1211.7
2014-Apr-18 14:33N 51°26' E 002°13'1211.7
2014-Apr-18 13:32N 51°15' E 002°05'1212.0
2014-Apr-18 12:33N 51°08' E 001°49'1311.4
2014-Apr-18 11:26N 50°60' E 001°34'39 9.4
2014-Apr-18 07:18N 50°30' E 000°55'810.3
2014-Apr-18 06:33N 50°28' E 000°43'1010.2
2014-Apr-18 05:33N 50°25' E 000°28'6811.4
2014-Apr-17 23:33N 50°07' W 001°15'  

Dump ship's entire track history

sailing weather and tide predictions

Stolt Dipper — ZCMY3 — position and weather